軌道要素
Epoch 2015 Dec. 4.0 TT = JDT 2457360.5
T 2015 Nov. 16.63501 TT MPCW
q 3.1215029 (2000.0) P Q
n 0.10569037 Peri. 352.34393 +0.10508832 +0.97089102
a 4.4304288 Node 283.50321 -0.90026995 +0.00093563
e 0.2954400 Incl. 12.78870 -0.42245764 +0.23951985
P 9.33
From 47 observations 1998 Oct. 18-2016 Aug. 30, mean residual 0".5.
|